COSMOS 2520

Last updated on Jan. 17, 2021, 6:29 a.m. UTC

1 42907U 17046A   21016.68470078  .00000132  00000-0  00000-0 0  9996
2 42907   0.0257 101.8462 0000909 243.2187  62.7441  1.00272402 12561
UTC
Height (km)
Latitude
Longitude
Inclination
Orbital Period
UTC large
Height (km)
Speed (km/s)
/
Latitude / Longitude
Inclination (degrees)
Orbital Period (minutes)
Azimuth
Elevation
Range (km)
Doppler Factor
iOS Compass Heading
iOS Angle

Next 30 passes for location: Hong Kong

Rise time Rise Azimuth (degrees) Set time Set Azimuth (degrees) Duration Max altitude (degrees)

No matching passes for this satellites